Location: B�di�
(14.6834°N, 3.1047°W)
Time: 18:43:04
(UTC+00:00)

NOSS 3-2 (C) - Pass Details

Date: 24 January 2020
Orbit: 813 x 1399 km, 63.4° (Epoch: 23 February)

Event Time Altitude Azimuth Distance (km) Brightness Sun altitude
Rises 20:07:15 0° 221° (SW) 3,326 7.1 -28.6°
Reaches altitude 10° 20:09:47 10° 229° (SW) 2,393 6.3 -29.2°
Maximum altitude 20:14:50 39° 297° (WNW) 1,229 4.3 -30.4°
Enters shadow 20:16:16 33° 331° (NNW) 1,376 4.3 -30.8°
